Montpelier, VT

8:44 AM EST on December 09, 2019 (GMT -0500)
Knapp State

Weather History for KMPV - July, 2019

Change the Weather History Date:

Saturday, July 13, 2019

  Actual Average Record
Temperature  
Mean Temperature 69 °F 67 °F  
Max Temperature 81 °F 79 °F 89 °F (1995)
Min Temperature 56 °F 56 °F 43 °F (1955)
Degree Days  
Heating Degree Days 0 1  
Month to date heating degree days 6 19  
Since 1 June heating degree days 150 140  
Since 1 July heating degree days 6 19  
Cooling Degree Days 4 4  
Month to date cooling degree days 50 42  
Year to date cooling degree days 70 105  
Since 1 June cooling degree days 69 95  
Growing Degree Days 18 (Base 50)    
Moisture  
Dew Point 61 °F    
Average Humidity 74    
Maximum Humidity 100    
Minimum Humidity 48    
Precipitation  
Precipitation 0.06 in 0.12 in 1.11 in (1996)
Month to date precipitation 1.17 1.58  
Year to date precipitation 26.10 18.29  
Sea Level Pressure  
Sea Level Pressure 29.91 in    
Wind  
Wind Speed 4 mph (SW)    
Max Wind Speed 16 mph    
Max Gust Speed 21 mph    
Visibility 10 miles    
Events Rain    
T = Trace of Precipitation, MM = Missing Value Source: NWS Daily Summary

Daily Weather History Graph

Daily Weather History Graph

Search for Another Location

Airport or City:

Astronomy

Jul. 13, 2019 Rise Set
Actual Time 5:18 AM EDT 8:32 PM EDT
Civil Twilight 4:43 AM EDT 9:08 PM EDT
Nautical Twilight 3:57 AM EDT 9:53 PM EDT
Astronomical Twilight 3:01 AM EDT 10:49 PM EDT
Moon 5:51 PM EDT (7/13) 2:39 AM EDT (7/13)
Length of Visible Light 16h 24m
Length of Day
15h 14m
Waxing Gibbous, 90% of the Moon is Illuminated
Jul 13
Waxing Gibbous
Jul 16
Full
Jul 24
Last Quarter
Jul 31
New
Aug 7
First Quarter

Hourly Weather History & Observations

Time (EDT) Temp. Heat Index Dew Point Humidity Pressure Visibility Wind Dir Wind Speed Gust Speed Precip Events Conditions
12:51 AM 59.0 °F - 57.9 °F 96% 29.88 in 10.0 mi Calm Calm - N/A   Scattered Clouds
1:51 AM 61.0 °F - 59.0 °F 93% 29.88 in 10.0 mi WSW 3.5 mph - N/A   Clear
2:51 AM 61.0 °F - 59.0 °F 93% 29.88 in 10.0 mi Calm Calm - N/A   Overcast
3:51 AM 59.0 °F - 57.9 °F 96% 29.88 in 10.0 mi Calm Calm - N/A   Clear
4:51 AM 57.0 °F - 55.9 °F 96% 29.90 in 10.0 mi South 3.5 mph - N/A   Clear
5:51 AM 57.9 °F - 57.0 °F 97% 29.91 in 10.0 mi Calm Calm - N/A   Clear
6:51 AM 61.0 °F - 60.1 °F 97% 29.93 in 10.0 mi Calm Calm - N/A   Clear
7:51 AM 64.0 °F - 61.0 °F 90% 29.95 in 10.0 mi Calm Calm - N/A   Clear
8:51 AM 69.1 °F - 63.0 °F 81% 29.94 in 10.0 mi Variable 3.5 mph - N/A   Clear
9:51 AM 72.0 °F - 60.1 °F 66% 29.94 in 10.0 mi NNW 3.5 mph - N/A   Clear
10:51 AM 73.0 °F - 60.1 °F 64% 29.94 in 10.0 mi West 3.5 mph - N/A   Mostly Cloudy
11:51 AM 75.9 °F - 60.1 °F 58% 29.93 in 10.0 mi North 4.6 mph - N/A   Mostly Cloudy
12:51 PM 75.9 °F - 60.1 °F 58% 29.92 in 10.0 mi Calm Calm - N/A   Mostly Cloudy
1:51 PM 78.1 °F - 59.0 °F 52% 29.91 in 10.0 mi WNW 8.1 mph - N/A   Mostly Cloudy
2:51 PM 79.0 °F - 57.9 °F 48% 29.91 in 10.0 mi Variable 5.8 mph - N/A   Partly Cloudy
3:51 PM 80.1 °F 80.9 °F 60.1 °F 50% 29.89 in 10.0 mi SW 5.8 mph - N/A   Scattered Clouds
4:51 PM 78.1 °F - 62.1 °F 58% 29.89 in 10.0 mi SSW 4.6 mph - N/A   Overcast
5:51 PM 80.1 °F 81.5 °F 63.0 °F 56% 29.88 in 10.0 mi South 8.1 mph - N/A   Partly Cloudy
6:51 PM 79.0 °F - 63.0 °F 58% 29.87 in 10.0 mi SSW 6.9 mph - N/A   Clear
7:51 PM 75.0 °F - 63.0 °F 66% 29.87 in 10.0 mi South 8.1 mph - N/A   Mostly Cloudy
8:51 PM 75.0 °F - 63.0 °F 66% 29.88 in 10.0 mi Variable 5.8 mph - N/A   Mostly Cloudy
9:51 PM 69.1 °F - 64.0 °F 84% 29.93 in 7.0 mi WNW 5.8 mph - 0.03 in Rain Light Rain
10:51 PM 66.9 °F - 64.9 °F 93% 29.92 in 10.0 mi SSW 3.5 mph - 0.02 in   Overcast
11:51 PM 66.0 °F - 62.1 °F 87% 29.93 in 10.0 mi Calm Calm - 0.01 in   Overcast